CW4438 Weather Reports


Display with metric or nautical units.
time (UTC)temp
F
wind
direction
speed
MPH
gust
MPH
rain 1hr
in
rain 24hr
in
rain mn
in
humidity
%
barometer
mb
20260902005211 91 113 0.0 3.0 0.00 0.00 0.00 43 1014.8
20260902004709 91 68 0.0 2.0 0.00 0.00 0.00 42 1014.8
20260902004210 92 114 0.0 2.0 0.00 0.00 0.00 42 1014.8
20260902003206 93 171 0.0 1.0 0.00 0.00 0.00 40 1014.8
20260902002703 93 67 0.0 2.0 0.00 0.00 0.00 40 1014.9
20260902001705 94 128 1.0 3.0 0.00 0.00 0.00 39 1014.9
20260902001204 94 111 1.0 3.0 0.00 0.00 0.00 39 1014.9
20260902000704 94 120 1.0 3.0 0.00 0.00 0.00 39 1014.9
20260901235704 95 130 1.0 3.0 0.00 0.00 0.00 37 1015.0
20260901234151 96 115 0.0 2.0 0.00 0.00 0.00 38 1015.1
20260901233652 96 115 1.0 2.0 0.00 0.00 0.00 38 1015.1
20260901233152 96 120 1.0 5.0 0.00 0.00 0.00 37 1015.1
20260901232649 96 84 1.0 5.0 0.00 0.00 0.00 36 1015.2
20260901232149 96 133 1.0 4.0 0.00 0.00 0.00 36 1015.2
20260901231650 97 207 1.0 4.0 0.00 0.00 0.00 35 1015.2
20260901231150 97 230 1.0 3.0 0.00 0.00 0.00 35 1015.3
20260901230649 97 240 2.0 4.0 0.00 0.00 0.00 35 1015.3
20260901230150 97 192 2.0 4.0 0.00 0.00 0.00 35 1015.3
20260901225649 97 110 2.0 7.0 0.00 0.00 0.00 35 1015.3
20260901225149 97 138 1.0 7.0 0.00 0.00 0.00 35 1015.3
20260901224649 97 173 1.0 4.0 0.00 0.00 0.00 36 1015.3
20260901224150 98 89 1.0 4.0 0.00 0.00 0.00 36 1015.3
20260901223648 98 277 1.0 3.0 0.00 0.00 0.00 36 1015.3
20260901223147 98 170 2.0 4.0 0.00 0.00 0.00 37 1015.3
20260901222636 98 288 2.0 4.0 0.00 0.00 0.00 35 1015.3
20260901222134 98 145 1.0 3.0 0.00 0.00 0.00 35 1015.3
20260901221133 99 80 1.0 3.0 0.00 0.00 0.00 36 1015.3
20260901220633 99 231 1.0 3.0 0.00 0.00 0.00 34 1015.3
20260901220132 100 213 2.0 4.0 0.00 0.00 0.00 33 1015.3
20260901215631 101 183 2.0 7.0 0.00 0.00 0.00 32 1015.3
20260901215131 101 173 2.0 8.0 0.00 0.00 0.00 32 1015.3
20260901214632 101 153 2.0 8.0 0.00 0.00 0.00 32 1015.3
20260901214131 101 67 2.0 5.0 0.00 0.00 0.00 33 1015.3
20260901212631 101 273 3.0 8.0 0.00 0.00 0.00 32 1015.4
20260901212131 101 121 3.0 8.0 0.00 0.00 0.00 33 1015.5
20260901211131 101 186 2.0 5.0 0.00 0.00 0.00 33 1015.5
20260901210632 101 28 2.0 4.0 0.00 0.00 0.00 34 1015.6
20260901210131 100 136 2.0 5.0 0.00 0.00 0.00 34 1015.7
20260901205631 100 104 2.0 5.0 0.00 0.00 0.00 35 1015.8
20260901205131 100 42 3.0 8.0 0.00 0.00 0.00 34 1015.8
20260901204131 99 244 2.0 6.0 0.00 0.00 0.00 35 1015.8
20260901203631 99 143 2.0 5.0 0.00 0.00 0.00 36 1015.9
20260901202631 100 116 2.0 7.0 0.00 0.00 0.00 36 1016.1
20260901202131 100 167 3.0 6.0 0.00 0.00 0.00 36 1016.1
20260901201632 100 120 2.0 6.0 0.00 0.00 0.00 35 1016.2
20260901201131 100 129 1.0 5.0 0.00 0.00 0.00 36 1016.3
20260901200632 99 294 1.0 4.0 0.00 0.00 0.00 35 1016.2
20260901200131 100 305 1.0 5.0 0.00 0.00 0.00 35 1016.5
20260901195631 100 75 1.0 5.0 0.00 0.00 0.00 35 1016.5
20260901195130 99 190 2.0 8.0 0.00 0.00 0.00 37 1016.6
20260901194631 98 182 2.0 8.0 0.00 0.00 0.00 37 1016.6
20260901194130 98 212 2.0 7.0 0.00 0.00 0.00 37 1016.7
20260901193631 98 223 2.0 5.0 0.00 0.00 0.00 37 1016.8
20260901193131 98 203 2.0 5.0 0.00 0.00 0.00 37 1016.9
20260901192632 98 91 2.0 7.0 0.00 0.00 0.00 36 1016.9
20260901192131 99 195 2.0 7.0 0.00 0.00 0.00 36 1016.9
20260901191632 99 44 2.0 5.0 0.00 0.00 0.00 37 1016.9
20260901191131 98 184 2.0 4.0 0.00 0.00 0.00 37 1016.9
20260901190632 98 169 1.0 4.0 0.00 0.00 0.00 40 1017.0
20260901185630 98 162 2.0 6.0 0.00 0.00 0.00 38 1017.2
20260901185131 99 192 2.0 6.0 0.00 0.00 0.00 37 1017.2
20260901184131 100 103 2.0 4.0 0.00 0.00 0.00 36 1017.3
20260901183631 100 341 2.0 5.0 0.00 0.00 0.00 35 1017.4
20260901183130 100 176 2.0 7.0 0.00 0.00 0.00 36 1017.5
20260901182632 100 146 3.0 8.0 0.00 0.00 0.00 36 1017.6
20260901181631 99 207 2.0 5.0 0.00 0.00 0.00 38 1017.7
20260901181130 98 155 2.0 7.0 0.00 0.00 0.00 37 1017.8
20260901180632 98 76 2.0 7.0 0.00 0.00 0.00 37 1017.9
20260901180131 99 158 2.0 5.0 0.00 0.00 0.00 38 1018.0
20260901175631 98 232 1.0 4.0 0.00 0.00 0.00 38 1018.0
20260901175131 98 101 1.0 5.0 0.00 0.00 0.00 41 1018.2
20260901174631 98 174 2.0 5.0 0.00 0.00 0.00 39 1018.2
20260901172631 98 82 2.0 5.0 0.00 0.00 0.00 39 1018.5
20260901172130 99 195 2.0 7.0 0.00 0.00 0.00 38 1018.5
20260901171633 98 263 3.0 7.0 0.00 0.00 0.00 39 1018.6
20260901171132 98 221 2.0 7.0 0.00 0.00 0.00 40 1018.6
20260901165627 98 309 3.0 6.0 0.00 0.00 0.00 41 1018.8
20260901165127 97 278 2.0 5.0 0.00 0.00 0.00 42 1018.8
20260901164627 97 208 2.0 8.0 0.00 0.00 0.00 41 1018.9
20260901164125 97 211 2.0 8.0 0.00 0.00 0.00 41 1018.9
20260901163626 96 176 2.0 5.0 0.00 0.00 0.00 43 1018.9
20260901163125 96 226 2.0 6.0 0.00 0.00 0.00 42 1019.0
20260901162619 96 226 2.0 6.0 0.00 0.00 0.00 43 1018.9
20260901162119 96 200 2.0 7.0 0.00 0.00 0.00 46 1019.0
20260901161120 94 333 2.0 6.0 0.00 0.00 0.00 46 1019.0
20260901160620 94 206 2.0 6.0 0.00 0.00 0.00 47 1019.0
20260901160119 94 277 2.0 6.0 0.00 0.00 0.00 47 1019.2
20260901155619 93 296 2.0 8.0 0.00 0.00 0.00 48 1019.3
20260901155120 93 198 3.0 8.0 0.00 0.00 0.00 48 1019.3
20260901154613 93 204 3.0 7.0 0.00 0.00 0.00 49 1019.3
20260901154108 93 209 3.0 6.0 0.00 0.00 0.00 48 1019.4
20260901153607 93 236 3.0 7.0 0.00 0.00 0.00 49 1019.4
20260901152607 92 348 3.0 7.0 0.00 0.00 0.00 51 1019.3
20260901152107 92 213 3.0 7.0 0.00 0.00 0.00 50 1019.3
20260901151107 91 200 2.0 6.0 0.00 0.00 0.00 52 1019.3
20260901150607 91 231 3.0 6.0 0.00 0.00 0.00 52 1019.4
20260901150104 91 188 2.0 6.0 0.00 0.00 0.00 54 1019.4
20260901145604 90 217 2.0 8.0 0.00 0.00 0.00 54 1019.4
20260901145103 89 281 3.0 8.0 0.00 0.00 0.00 54 1019.4
20260901144604 89 333 3.0 6.0 0.00 0.00 0.00 55 1019.4
20260901143604 88 241 2.0 5.0 0.00 0.00 0.00 57 1019.3
20260901143105 88 114 2.0 6.0 0.00 0.00 0.00 58 1019.3
20260901142604 87 234 2.0 6.0 0.00 0.00 0.00 58 1019.3
20260901142105 87 157 2.0 7.0 0.00 0.00 0.00 59 1019.2
20260901141604 86 349 2.0 7.0 0.00 0.00 0.00 61 1019.3
20260901141103 85 223 2.0 5.0 0.00 0.00 0.00 63 1019.3
20260901140104 83 241 2.0 6.0 0.00 0.00 0.00 66 1019.4
20260901135603 81 228 2.0 6.0 0.00 0.00 0.00 68 1019.4
20260901135103 80 88 1.0 3.0 0.00 0.00 0.00 71 1019.4
20260901134603 79 226 1.0 3.0 0.00 0.00 0.00 73 1019.3
20260901133603 77 194 0.0 2.0 0.00 0.00 0.00 77 1019.3
20260901133103 77 89 0.0 2.0 0.00 0.00 0.00 77 1019.3
20260901132602 76 104 0.0 1.0 0.00 0.00 0.00 78 1019.2
20260901131604 75 113 0.0 1.0 0.00 0.00 0.00 81 1019.2
20260901131105 74 113 0.0 0.0 0.00 0.00 0.00 82 1019.2
20260901125602 73 22 0.0 0.0 0.00 0.00 0.00 83 1018.9
20260901125103 72 113 0.0 0.0 0.00 0.00 0.00 83 1018.9
20260901124612 72 113 0.0 0.0 0.00 0.00 0.00 83 1018.8
20260901123602 72 113 0.0 0.0 0.00 0.00 0.00 82 1018.6
20260901123104 72 113 0.0 1.0 0.00 0.00 0.00 82 1018.6
20260901122602 72 113 0.0 1.0 0.00 0.00 0.00 82 1018.5
20260901122103 72 113 0.0 0.0 0.00 0.00 0.00 82 1018.5
20260901121603 72 113 0.0 0.0 0.00 0.00 0.00 82 1018.4
20260901121104 72 113 0.0 0.0 0.00 0.00 0.00 81 1018.3
20260901120604 72 113 0.0 0.0 0.00 0.00 0.00 81 1018.4
20260901115603 72 113 0.0 0.0 0.00 0.00 0.00 81 1018.3
20260901115102 72 113 0.0 1.0 0.00 0.00 0.00 80 1018.2
20260901114103 73 113 0.0 1.0 0.00 0.00 0.00 80 1018.2
20260901113604 73 32 0.0 1.0 0.00 0.00 0.00 79 1018.2
20260901112602 73 31 0.0 2.0 0.00 0.00 0.00 79 1018.1
20260901112103 73 31 0.0 2.0 0.00 0.00 0.00 78 1018.0
20260901111104 74 29 0.0 1.0 0.00 0.00 0.00 78 1018.0
20260901110604 74 30 0.0 1.0 0.00 0.00 0.00 77 1017.9
20260901110104 74 30 0.0 1.0 0.00 0.00 0.00 77 1018.0
20260901105603 74 32 0.0 1.0 0.00 0.00 0.00 77 1017.9
20260901105103 74 30 0.0 1.0 0.00 0.00 0.00 76 1017.9
20260901104603 74 31 0.0 1.0 0.00 0.00 0.00 76 1017.9
20260901104102 74 31 0.0 1.0 0.00 0.00 0.00 76 1017.8
20260901103603 74 31 0.0 1.0 0.00 0.00 0.00 76 1017.8
20260901103102 75 30 0.0 1.0 0.00 0.00 0.00 75 1017.8
20260901102602 75 30 0.0 0.0 0.00 0.00 0.00 75 1017.7
20260901102103 75 29 0.0 0.0 0.00 0.00 0.00 75 1017.6
20260901101603 75 30 0.0 1.0 0.00 0.00 0.00 75 1017.6
20260901100602 75 30 0.0 1.0 0.00 0.00 0.00 74 1017.6
20260901095602 75 29 0.0 0.0 0.00 0.00 0.00 73 1017.6
20260901095103 75 28 0.0 0.0 0.00 0.00 0.00 74 1017.5
20260901094105 76 30 0.0 1.0 0.00 0.00 0.00 73 1017.6
20260901093604 76 29 0.0 1.0 0.00 0.00 0.00 73 1017.6
20260901093105 76 29 0.0 1.0 0.00 0.00 0.00 73 1017.6
20260901092603 76 28 0.0 1.0 0.00 0.00 0.00 73 1017.6
20260901092104 76 30 0.0 1.0 0.00 0.00 0.00 72 1017.5
20260901091603 76 28 0.0 1.0 0.00 0.00 0.00 72 1017.5
20260901091104 76 28 0.0 1.0 0.00 0.00 0.00 72 1017.5
20260901090604 76 28 0.0 1.0 0.00 0.00 0.00 72 1017.5
20260901090104 76 30 0.0 1.0 0.00 0.00 0.00 72 1017.4
20260901085604 76 32 0.0 1.0 0.00 0.00 0.00 72 1017.4
20260901085104 76 30 0.0 1.0 0.00 0.00 0.00 71 1017.4
20260901084603 76 42 0.0 1.0 0.00 0.00 0.00 72 1017.4
20260901084104 76 40 0.0 1.0 0.00 0.00 0.00 71 1017.4
20260901083605 76 41 0.0 2.0 0.00 0.00 0.00 71 1017.3
20260901082545 76 30 0.0 1.0 0.00 0.00 0.00 71 1017.3
20260901081540 76 29 0.0 1.0 0.00 0.00 0.00 70 1017.2
20260901081037 76 30 0.0 1.0 0.00 0.00 0.00 70 1017.2
20260901080536 76 30 0.0 1.0 0.00 0.00 0.00 70 1017.1
20260901080035 76 30 0.0 1.0 0.00 0.00 0.00 70 1017.1
20260901075535 76 29 0.0 1.0 0.00 0.00 0.00 70 1017.2
20260901075035 76 29 0.0 1.0 0.00 0.00 0.00 70 1017.2
20260901074535 76 30 0.0 2.0 0.00 0.00 0.00 69 1017.2
20260901074033 76 28 0.0 2.0 0.00 0.00 0.00 69 1017.2
20260901073534 76 29 0.0 1.0 0.00 0.00 0.00 69 1017.3
20260901073036 76 28 0.0 0.0 0.00 0.00 0.00 68 1017.4
20260901072531 77 28 0.0 0.0 0.00 0.00 0.00 67 1017.4
20260901071531 77 28 0.0 0.0 0.00 0.00 0.00 67 1017.2
20260901071031 77 28 0.0 1.0 0.00 0.00 0.00 66 1017.2
20260901070031 78 26 0.0 1.0 0.00 0.00 0.00 65 1017.2
20260901064531 78 27 0.0 1.0 0.00 0.00 0.00 63 1017.2
20260901064030 79 26 0.0 1.0 0.00 0.00 0.00 62 1017.2
20260901063031 79 26 0.0 4.0 0.00 0.00 0.00 62 1017.3
20260901062531 79 26 0.0 4.0 0.00 0.00 0.00 61 1017.4
20260901061032 80 29 1.0 3.0 0.00 0.00 0.00 60 1017.4
20260901060533 80 22 0.0 2.0 0.00 0.00 0.00 60 1017.3
20260901060032 80 21 0.0 3.0 0.00 0.00 0.00 60 1017.3
20260901055532 80 24 1.0 3.0 0.00 0.00 0.00 60 1017.4
20260901054532 79 44 1.0 3.0 0.00 0.00 0.00 60 1017.2
20260901054033 79 25 1.0 3.0 0.00 0.00 0.00 60 1017.2
20260901053532 79 19 1.0 4.0 0.00 0.00 0.00 60 1017.2
20260901053033 79 24 1.0 4.0 0.00 0.00 0.00 59 1017.2
20260901052531 79 22 1.0 3.0 0.00 0.00 0.00 59 1017.1
20260901052031 80 24 1.0 3.0 0.00 0.00 0.00 59 1017.1
20260901051031 80 31 0.0 2.0 0.00 0.00 0.00 58 1017.0
20260901050031 80 22 0.0 3.0 0.00 0.00 0.00 57 1016.9
20260901045531 80 24 0.0 3.0 0.00 0.00 0.00 57 1016.9
20260901045030 80 22 0.0 3.0 0.00 0.00 0.00 56 1017.0
20260901044531 81 20 0.0 1.0 0.00 0.00 0.00 56 1017.0
20260901044030 81 20 0.0 3.0 0.00 0.00 0.00 55 1017.0
20260901043520 81 18 0.0 3.0 0.00 0.00 0.00 55 1016.9
20260901043014 81 18 0.0 2.0 0.00 0.00 0.00 54 1016.9
20260901042503 82 20 0.0 1.0 0.00 0.00 0.00 54 1017.0
20260901041503 82 19 0.0 1.0 0.00 0.00 0.00 53 1016.9
20260901041004 83 20 0.0 2.0 0.00 0.00 0.00 52 1016.9
20260901040503 83 21 1.0 2.0 0.00 0.00 0.00 52 1017.0
20260901035503 83 17 1.0 3.0 0.00 0.00 0.00 51 1016.9
20260901035004 84 16 1.0 3.0 0.00 0.00 0.00 50 1016.9
20260901034503 84 17 1.0 2.0 0.00 0.00 0.00 49 1016.9
20260901034004 85 15 0.0 2.0 0.00 0.00 0.00 49 1016.9
20260901033504 85 17 0.0 3.0 0.00 0.00 0.00 49 1017.0
20260901033004 85 18 1.0 3.0 0.00 0.00 0.00 48 1016.9
20260901032504 85 19 1.0 3.0 0.00 0.00 0.00 48 1016.9
20260901032004 85 17 1.0 6.0 0.00 0.00 0.00 48 1016.8
20260901031454 85 17 2.0 6.0 0.00 0.00 0.00 47 1016.8
20260901030948 86 20 1.0 5.0 0.00 0.00 0.00 47 1016.8
20260901030442 86 19 1.0 5.0 0.00 0.00 0.00 48 1016.8
20260901025936 86 18 1.0 4.0 0.00 0.00 0.00 48 1016.7
20260901024932 86 11 1.0 5.0 0.00 0.00 0.00 48 1016.6
20260901024431 86 20 1.0 5.0 0.00 0.00 0.00 47 1016.5
20260901023931 86 26 1.0 4.0 0.00 0.00 0.00 47 1016.5
20260901023433 86 22 1.0 3.0 0.00 0.00 0.00 47 1016.3
20260901022931 87 15 1.0 4.0 0.00 0.00 0.00 47 1016.2
20260901022432 87 19 1.0 4.0 0.00 0.00 0.00 47 1016.2
20260901021931 87 20 1.0 4.0 0.00 0.00 0.00 47 1016.2
20260901021432 87 20 1.0 4.0 0.00 0.00 0.00 46 1016.1
20260901020930 87 17 0.0 2.0 0.00 0.00 0.00 46 1016.1
20260901015930 88 181 1.0 5.0 0.00 0.00 0.00 45 1015.9
20260901015431 88 153 1.0 4.0 0.00 0.00 0.00 44 1015.9
20260901014931 88 77 1.0 3.0 0.00 0.00 0.00 44 1015.8
20260901014432 88 117 1.0 3.0 0.00 0.00 0.00 44 1015.8
20260901013931 88 124 1.0 4.0 0.00 0.00 0.00 44 1015.7
20260901013431 89 190 1.0 5.0 0.00 0.00 0.00 43 1015.6
20260901012431 89 203 0.0 2.0 0.00 0.00 0.00 42 1015.6
20260901011931 89 318 0.0 2.0 0.00 0.00 0.00 42 1015.5
20260901011430 89 96 0.0 2.0 0.00 0.00 0.00 41 1015.4
20260901010930 90 92 0.0 1.0 0.00 0.00 0.00 41 1015.4
20260901010431 91 92 0.0 1.0 0.00 0.00 0.00 41 1015.3
20260901005930 91 92 0.0 4.0 0.00 0.00 0.00 39 1015.3